| time (UTC) | temp F | wind direction | speed MPH | gust MPH | rain 1hr in | rain 24hr in | rain mn in | humidity % | barometer mb |
| 20260502163029 | 61 | 79 | 0.0 | 1.0 | 0.00 | 0.02 | 0.02 | 72 | 1012.3 |
| 20260502161519 | 62 | 85 | 0.0 | 1.0 | 0.00 | 0.02 | 0.02 | 71 | 1012.5 |
| 20260502151504 | 63 | 305 | 0.0 | 0.0 | 0.00 | 0.02 | 0.02 | 67 | 1012.9 |
| 20260502123107 | 64 | 145 | 0.0 | 1.0 | 0.00 | 0.03 | 0.02 | 62 | 1013.8 |
| 20260502121542 | 65 | 316 | 0.0 | 1.0 | 0.00 | 0.03 | 0.02 | 62 | 1013.8 |
| 20260502114536 | 64 | 333 | 0.0 | 1.0 | 0.00 | 0.07 | 0.02 | 66 | 1014.1 |
| 20260502113044 | 64 | 94 | 0.0 | 0.0 | 0.00 | 0.07 | 0.02 | 67 | 1014.1 |
| 20260502111536 | 62 | 86 | 0.0 | 3.0 | 0.00 | 0.07 | 0.02 | 70 | 1014.2 |
| 20260502110031 | 63 | 305 | 0.0 | 1.0 | 0.00 | 0.07 | 0.02 | 68 | 1014.2 |
| 20260502104533 | 63 | 309 | 0.0 | 3.0 | 0.00 | 0.08 | 0.02 | 70 | 1014.2 |
| 20260502103027 | 62 | 314 | 0.0 | 1.0 | 0.00 | 0.08 | 0.02 | 72 | 1014.2 |
| 20260502101525 | 61 | 307 | 0.0 | 1.0 | 0.00 | 0.08 | 0.02 | 74 | 1014.3 |
| 20260502091515 | 60 | 354 | 0.0 | 4.0 | 0.00 | 0.08 | 0.02 | 79 | 1014.6 |
| 20260502070111 | 53 | 148 | 0.0 | 3.0 | 0.00 | 0.08 | 0.02 | 91 | 1014.7 |
| 20260502064555 | 52 | 210 | 0.0 | 1.0 | 0.00 | 0.08 | 0.02 | 94 | 1014.9 |
| 20260502063055 | 50 | 199 | 0.0 | 0.0 | 0.00 | 0.08 | 0.02 | 94 | 1014.8 |
| 20260502061554 | 49 | 198 | 0.0 | 0.0 | 0.00 | 0.08 | 0.02 | 94 | 1014.8 |
| 20260502060054 | 49 | 198 | 0.0 | 0.0 | 0.00 | 0.08 | 0.02 | 94 | 1014.9 |
| 20260502054552 | 48 | 200 | 0.0 | 0.0 | 0.00 | 0.08 | 0.02 | 94 | 1014.9 |
| 20260502053056 | 48 | 194 | 0.0 | 0.0 | 0.00 | 0.08 | 0.02 | 94 | 1015.0 |
| 20260502051600 | 47 | 2 | 0.0 | 0.0 | 0.00 | 0.08 | 0.02 | 95 | 1015.0 |
| 20260502050049 | 47 | 2 | 0.0 | 0.0 | 0.00 | 0.08 | 0.02 | 94 | 1015.0 |
| 20260502044549 | 47 | 2 | 0.0 | 0.0 | 0.00 | 0.08 | 0.02 | 94 | 1014.9 |
| 20260502043047 | 47 | 2 | 0.0 | 0.0 | 0.00 | 0.08 | 0.02 | 94 | 1014.9 |
| 20260502041544 | 48 | 2 | 0.0 | 0.0 | 0.00 | 0.08 | 0.02 | 94 | 1014.9 |
| 20260502040044 | 48 | 2 | 0.0 | 0.0 | 0.00 | 0.08 | 0.02 | 94 | 1014.9 |
| 20260502034543 | 48 | 2 | 0.0 | 0.0 | 0.00 | 0.08 | 0.02 | 94 | 1014.9 |
| 20260502033042 | 48 | 2 | 0.0 | 0.0 | 0.00 | 0.08 | 0.02 | 94 | 1015.0 |
| 20260502031541 | 48 | 105 | 0.0 | 0.0 | 0.00 | 0.08 | 0.02 | 94 | 1014.8 |
| 20260502030045 | 48 | 105 | 0.0 | 0.0 | 0.00 | 0.08 | 0.02 | 93 | 1015.0 |
| 20260502024536 | 49 | 105 | 0.0 | 0.0 | 0.00 | 0.08 | 0.02 | 93 | 1015.3 |
| 20260502023036 | 49 | 105 | 0.0 | 0.0 | 0.00 | 0.08 | 0.02 | 93 | 1015.3 |
| 20260502021532 | 50 | 105 | 0.0 | 0.0 | 0.00 | 0.08 | 0.02 | 92 | 1015.6 |
| 20260502020029 | 50 | 105 | 0.0 | 0.0 | 0.00 | 0.08 | 0.02 | 93 | 1015.4 |
| 20260502014529 | 51 | 105 | 0.0 | 0.0 | 0.00 | 0.08 | 0.02 | 93 | 1015.7 |
| 20260502013025 | 51 | 105 | 0.0 | 0.0 | 0.00 | 0.08 | 0.02 | 93 | 1015.7 |
| 20260502011522 | 52 | 105 | 0.0 | 0.0 | 0.00 | 0.08 | 0.02 | 92 | 1015.9 |
| 20260502010026 | 52 | 105 | 0.0 | 0.0 | 0.00 | 0.08 | 0.02 | 92 | 1016.0 |
| 20260502004519 | 52 | 105 | 0.0 | 0.0 | 0.01 | 0.08 | 0.02 | 92 | 1016.1 |
| 20260502003016 | 53 | 359 | 0.0 | 0.0 | 0.01 | 0.08 | 0.02 | 92 | 1016.1 |
| 20260502001515 | 53 | 359 | 0.0 | 0.0 | 0.02 | 0.08 | 0.02 | 91 | 1016.2 |
| 20260502000016 | 54 | 359 | 0.0 | 0.0 | 0.02 | 0.08 | 0.02 | 90 | 1016.3 |
| 20260501234509 | 54 | 359 | 0.0 | 0.0 | 0.01 | 0.07 | 0.01 | 90 | 1016.3 |
| 20260501233007 | 55 | 358 | 0.0 | 0.0 | 0.01 | 0.07 | 0.01 | 88 | 1016.6 |
| 20260501231504 | 55 | 359 | 0.0 | 0.0 | 0.00 | 0.06 | 0.00 | 86 | 1016.4 |
| 20260501230002 | 55 | 358 | 0.0 | 0.0 | 0.00 | 0.06 | 0.06 | 84 | 1016.4 |
| 20260501224501 | 56 | 359 | 0.0 | 0.0 | 0.00 | 0.06 | 0.06 | 83 | 1016.5 |
| 20260501223002 | 56 | 358 | 0.0 | 0.0 | 0.00 | 0.06 | 0.06 | 82 | 1016.6 |
| 20260501221605 | 56 | 358 | 0.0 | 0.0 | 0.00 | 0.06 | 0.06 | 81 | 1016.5 |
| 20260501220109 | 56 | 358 | 0.0 | 0.0 | 0.00 | 0.06 | 0.06 | 79 | 1016.5 |
| 20260501214604 | 57 | 359 | 0.0 | 0.0 | 0.00 | 0.06 | 0.06 | 78 | 1016.5 |
| 20260501213106 | 57 | 358 | 0.0 | 0.0 | 0.00 | 0.06 | 0.06 | 77 | 1016.5 |
| 20260501211607 | 59 | 313 | 0.0 | 0.0 | 0.00 | 0.06 | 0.06 | 75 | 1016.5 |
| 20260501210057 | 59 | 313 | 0.0 | 0.0 | 0.00 | 0.06 | 0.06 | 74 | 1016.6 |
| 20260501204557 | 60 | 313 | 0.0 | 0.0 | 0.00 | 0.06 | 0.06 | 74 | 1016.7 |
| 20260501203059 | 60 | 313 | 0.0 | 0.0 | 0.00 | 0.06 | 0.06 | 73 | 1016.7 |
| 20260501201559 | 61 | 310 | 0.0 | 2.0 | 0.00 | 0.06 | 0.06 | 72 | 1016.6 |
| 20260501200055 | 62 | 289 | 0.0 | 1.0 | 0.00 | 0.06 | 0.06 | 70 | 1016.6 |
| 20260501194617 | 62 | 302 | 0.0 | 0.0 | 0.00 | 0.06 | 0.06 | 69 | 1016.5 |
| 20260501193054 | 63 | 314 | 0.0 | 0.0 | 0.00 | 0.06 | 0.06 | 68 | 1016.4 |
| 20260501191557 | 63 | 313 | 0.0 | 0.0 | 0.00 | 0.06 | 0.06 | 67 | 1016.3 |
| 20260501190055 | 64 | 37 | 0.0 | 0.0 | 0.00 | 0.06 | 0.06 | 65 | 1016.3 |
| 20260501184552 | 65 | 36 | 0.0 | 1.0 | 0.00 | 0.06 | 0.06 | 65 | 1016.3 |
| 20260501183052 | 66 | 236 | 0.0 | 1.0 | 0.00 | 0.06 | 0.06 | 63 | 1016.2 |
| 20260501181616 | 67 | 78 | 0.0 | 1.0 | 0.00 | 0.06 | 0.06 | 62 | 1016.0 |
| 20260501180051 | 68 | 179 | 0.0 | 1.0 | 0.00 | 0.06 | 0.06 | 63 | 1016.0 |
| 20260501174555 | 69 | 214 | 0.0 | 1.0 | 0.00 | 0.06 | 0.06 | 61 | 1016.0 |
| 20260501173107 | 71 | 190 | 0.0 | 0.0 | 0.00 | 0.06 | 0.06 | 60 | 1015.9 |
| 20260501171549 | 72 | 151 | 0.0 | 0.0 | 0.00 | 0.06 | 0.06 | 56 | 1015.8 |